CW1950 Weather Reports


Display with metric or nautical units.
time (UTC)temp
F
wind
direction
speed
MPH
gust
MPH
rain 1hr
in
rain 24hr
in
rain mn
in
humidity
%
barometer
mb
20260505080503 58 327 2.0 3.0 0.00 0.00 0.00 76 1011.6
20260505080003 58 334 2.0 3.0 0.00 0.00 0.00 75 1011.6
20260505060503 59 326 1.0 2.0 0.00 0.00 0.00 68 1011.3
20260505060003 60 333 1.0 3.0 0.00 0.00 0.00 68 1011.3
20260505050503 60 321 1.0 5.0 0.00 0.00 0.00 64 1011.5
20260505040004 62 310 1.0 3.0 0.00 0.00 0.00 65 1010.8
20260505030503 64 310 1.0 3.0 0.00 0.00 0.00 58 1010.5
20260505030004 64 278 2.0 7.0 0.00 0.00 0.00 58 1010.5
20260505020504 67 279 2.0 5.0 0.00 0.00 0.00 55 1010.2
20260505010504 69 286 3.0 7.0 0.00 0.00 0.00 48 1010.7
20260505010003 69 272 3.0 12.0 0.00 0.00 0.00 48 1010.7
20260505000004 72 275 4.0 12.0 0.00 0.00 0.00 47 1010.5
20260504230503 73 284 3.0 9.0 0.00 0.00 0.00 50 1010.8
20260504230003 73 278 6.0 12.0 0.00 0.00 0.00 50 1010.9
20260504220504 73 274 5.0 12.0 0.00 0.00 0.00 52 1011.2
20260504220003 73 251 4.0 12.0 0.00 0.00 0.00 51 1011.2
20260504210504 73 256 5.0 13.0 0.00 0.00 0.00 56 1011.7
20260504210004 73 237 5.0 13.0 0.00 0.00 0.00 56 1011.8
20260504190504 68 252 4.0 10.0 0.00 0.00 0.00 66 1012.0
20260504190003 68 231 4.0 12.0 0.00 0.00 0.00 67 1012.1
20260504180004 65 225 3.0 9.0 0.00 0.00 0.00 73 1012.1
20260504170504 62 220 3.0 7.0 0.00 0.00 0.00 79 1011.9
20260504150503 52 309 2.0 3.0 0.00 0.00 0.00 87 1012.1
20260504140504 50 312 0.0 2.0 0.00 0.00 0.00 87 1012.0
20260504130503 50 0 0.0 0.0 0.00 0.00 0.00 87 1011.4
20260504110503 50 233 0.0 1.0 0.00 0.00 0.00 87 1011.4